| time (UTC) | temp F | wind direction | speed MPH | gust MPH | rain 1hr in | rain 24hr in | rain mn in | humidity % | barometer mb |
| 20260506160909 | 75 | 121 | 3.0 | 7.0 | 0.00 | 0.00 | 0.00 | 56 | 1015.1 |
| 20260506160410 | 75 | 240 | 2.0 | 7.0 | 0.00 | 0.00 | 0.00 | 55 | 1015.1 |
| 20260506155909 | 75 | 281 | 2.0 | 9.0 | 0.00 | 0.00 | 0.00 | 57 | 1015.1 |
| 20260506155410 | 74 | 44 | 2.0 | 9.0 | 0.00 | 0.00 | 0.00 | 58 | 1015.0 |
| 20260506154911 | 74 | 146 | 2.0 | 8.0 | 0.00 | 0.00 | 0.00 | 57 | 1015.0 |
| 20260506154408 | 74 | 200 | 3.0 | 8.0 | 0.00 | 0.00 | 0.00 | 59 | 1014.9 |
| 20260506153910 | 73 | 276 | 3.0 | 8.0 | 0.00 | 0.00 | 0.00 | 60 | 1014.9 |
| 20260506153410 | 73 | 217 | 2.0 | 8.0 | 0.00 | 0.00 | 0.00 | 61 | 1014.8 |
| 20260506152906 | 72 | 239 | 2.0 | 6.0 | 0.00 | 0.00 | 0.00 | 64 | 1014.8 |
| 20260506152406 | 72 | 71 | 2.0 | 8.0 | 0.00 | 0.00 | 0.00 | 65 | 1014.6 |
| 20260506152210 | 71 | 202 | 2.0 | 8.0 | 0.00 | 0.00 | 0.00 | 66 | 1014.6 |
| 20260506151407 | 71 | 277 | 1.0 | 4.0 | 0.00 | 0.00 | 0.00 | 68 | 1014.7 |
| 20260506150909 | 71 | 207 | 1.0 | 3.0 | 0.00 | 0.00 | 0.00 | 70 | 1014.8 |
| 20260506150408 | 70 | 86 | 2.0 | 5.0 | 0.00 | 0.00 | 0.00 | 70 | 1014.7 |
| 20260506145907 | 69 | 139 | 2.0 | 5.0 | 0.00 | 0.00 | 0.00 | 71 | 1014.9 |
| 20260506145407 | 69 | 219 | 1.0 | 4.0 | 0.00 | 0.00 | 0.00 | 71 | 1015.0 |
| 20260506144908 | 69 | 225 | 1.0 | 3.0 | 0.00 | 0.00 | 0.00 | 71 | 1014.8 |
| 20260506144403 | 68 | 152 | 1.0 | 3.0 | 0.00 | 0.00 | 0.00 | 72 | 1015.0 |
| 20260506144209 | 68 | 108 | 1.0 | 3.0 | 0.00 | 0.00 | 0.00 | 71 | 1015.1 |
| 20260506143404 | 68 | 44 | 1.0 | 3.0 | 0.00 | 0.00 | 0.00 | 72 | 1015.3 |
| 20260506142904 | 68 | 255 | 1.0 | 3.0 | 0.00 | 0.00 | 0.00 | 72 | 1015.2 |
| 20260506142403 | 68 | 182 | 2.0 | 4.0 | 0.00 | 0.00 | 0.00 | 72 | 1015.1 |
| 20260506141905 | 67 | 51 | 2.0 | 5.0 | 0.00 | 0.00 | 0.00 | 72 | 1015.0 |
| 20260506141406 | 67 | 203 | 2.0 | 6.0 | 0.00 | 0.00 | 0.00 | 72 | 1014.8 |
| 20260506141212 | 67 | 214 | 2.0 | 6.0 | 0.00 | 0.00 | 0.00 | 72 | 1014.9 |
| 20260506140714 | 67 | 227 | 1.0 | 5.0 | 0.00 | 0.00 | 0.00 | 72 | 1015.0 |
| 20260506135902 | 67 | 196 | 1.0 | 5.0 | 0.00 | 0.00 | 0.00 | 72 | 1014.9 |
| 20260506135402 | 67 | 212 | 2.0 | 4.0 | 0.00 | 0.00 | 0.00 | 73 | 1014.7 |
| 20260506134902 | 67 | 254 | 2.0 | 5.0 | 0.00 | 0.00 | 0.00 | 73 | 1014.6 |
| 20260506134401 | 67 | 229 | 1.0 | 5.0 | 0.00 | 0.00 | 0.00 | 74 | 1014.6 |
| 20260506133902 | 66 | 182 | 1.0 | 3.0 | 0.00 | 0.00 | 0.00 | 74 | 1014.7 |
| 20260506133402 | 66 | 201 | 1.0 | 4.0 | 0.00 | 0.00 | 0.00 | 74 | 1014.7 |
| 20260506132902 | 65 | 109 | 1.0 | 4.0 | 0.00 | 0.00 | 0.00 | 75 | 1014.5 |
| 20260506132401 | 65 | 31 | 1.0 | 4.0 | 0.00 | 0.00 | 0.00 | 75 | 1014.5 |
| 20260506131901 | 65 | 210 | 1.0 | 3.0 | 0.00 | 0.00 | 0.00 | 75 | 1014.6 |
| 20260506131402 | 65 | 225 | 1.0 | 8.0 | 0.00 | 0.00 | 0.00 | 76 | 1014.6 |
| 20260506130900 | 64 | 349 | 1.0 | 8.0 | 0.00 | 0.00 | 0.00 | 75 | 1014.7 |
| 20260506130711 | 64 | 39 | 2.0 | 4.0 | 0.00 | 0.00 | 0.00 | 76 | 1014.3 |
| 20260506125902 | 64 | 89 | 2.0 | 6.0 | 0.00 | 0.00 | 0.00 | 76 | 1013.9 |
| 20260506125402 | 64 | 173 | 1.0 | 6.0 | 0.00 | 0.00 | 0.00 | 76 | 1014.4 |
| 20260506124901 | 64 | 249 | 1.0 | 3.0 | 0.00 | 0.00 | 0.00 | 76 | 1014.9 |
| 20260506124403 | 64 | 175 | 1.0 | 3.0 | 0.00 | 0.00 | 0.00 | 76 | 1014.9 |
| 20260506124213 | 63 | 190 | 1.0 | 3.0 | 0.00 | 0.00 | 0.00 | 77 | 1015.2 |
| 20260506123705 | 63 | 107 | 1.0 | 3.0 | 0.00 | 0.00 | 0.00 | 77 | 1015.1 |
| 20260506122901 | 63 | 123 | 1.0 | 3.0 | 0.00 | 0.00 | 0.00 | 77 | 1015.1 |
| 20260506122402 | 63 | 209 | 1.0 | 2.0 | 0.00 | 0.00 | 0.00 | 77 | 1015.2 |
| 20260506121901 | 63 | 325 | 0.0 | 3.0 | 0.00 | 0.00 | 0.00 | 77 | 1015.3 |
| 20260506121722 | 63 | 5 | 1.0 | 3.0 | 0.00 | 0.00 | 0.00 | 76 | 1015.6 |
| 20260506120903 | 63 | 44 | 1.0 | 2.0 | 0.00 | 0.00 | 0.00 | 76 | 1015.8 |
| 20260506120358 | 63 | 207 | 1.0 | 3.0 | 0.00 | 0.00 | 0.00 | 76 | 1015.6 |
| 20260506115859 | 63 | 146 | 1.0 | 3.0 | 0.00 | 0.00 | 0.00 | 76 | 1015.6 |
| 20260506115345 | 63 | 205 | 1.0 | 3.0 | 0.00 | 0.00 | 0.00 | 76 | 1015.4 |
| 20260506114844 | 63 | 202 | 1.0 | 3.0 | 0.00 | 0.00 | 0.00 | 76 | 1015.2 |
| 20260506114336 | 62 | 181 | 1.0 | 5.0 | 0.00 | 0.00 | 0.00 | 76 | 1015.2 |
| 20260506113833 | 62 | 89 | 1.0 | 5.0 | 0.00 | 0.00 | 0.00 | 76 | 1015.1 |
| 20260506113330 | 62 | 283 | 1.0 | 4.0 | 0.00 | 0.00 | 0.00 | 75 | 1014.9 |
| 20260506112832 | 62 | 13 | 1.0 | 4.0 | 0.00 | 0.00 | 0.00 | 75 | 1014.7 |
| 20260506112331 | 62 | 195 | 1.0 | 4.0 | 0.00 | 0.00 | 0.00 | 75 | 1014.8 |
| 20260506111830 | 62 | 202 | 2.0 | 4.0 | 0.00 | 0.00 | 0.00 | 75 | 1014.7 |
| 20260506111629 | 62 | 215 | 2.0 | 4.0 | 0.00 | 0.00 | 0.00 | 75 | 1014.7 |
| 20260506110832 | 62 | 194 | 1.0 | 3.0 | 0.00 | 0.00 | 0.00 | 75 | 1014.6 |
| 20260506110332 | 62 | 177 | 1.0 | 4.0 | 0.00 | 0.00 | 0.00 | 75 | 1014.5 |
| 20260506105831 | 62 | 195 | 1.0 | 4.0 | 0.00 | 0.00 | 0.00 | 75 | 1014.3 |
| 20260506105329 | 62 | 46 | 1.0 | 4.0 | 0.00 | 0.00 | 0.00 | 75 | 1014.0 |
| 20260506105140 | 62 | 30 | 1.0 | 4.0 | 0.00 | 0.00 | 0.00 | 75 | 1014.0 |
| 20260506104329 | 62 | 220 | 1.0 | 5.0 | 0.00 | 0.00 | 0.00 | 75 | 1014.0 |
| 20260506103829 | 62 | 165 | 2.0 | 6.0 | 0.00 | 0.00 | 0.00 | 75 | 1014.0 |
| 20260506103329 | 62 | 221 | 1.0 | 6.0 | 0.00 | 0.00 | 0.00 | 75 | 1013.9 |
| 20260506102829 | 62 | 93 | 1.0 | 4.0 | 0.00 | 0.00 | 0.00 | 75 | 1013.7 |
| 20260506102631 | 62 | 159 | 1.0 | 4.0 | 0.00 | 0.00 | 0.00 | 75 | 1013.7 |
| 20260506101824 | 62 | 341 | 1.0 | 4.0 | 0.00 | 0.00 | 0.00 | 75 | 1013.6 |
| 20260506101318 | 62 | 200 | 1.0 | 4.0 | 0.00 | 0.00 | 0.00 | 75 | 1013.8 |
| 20260506100812 | 62 | 83 | 1.0 | 4.0 | 0.00 | 0.00 | 0.00 | 76 | 1014.0 |
| 20260506100311 | 62 | 71 | 1.0 | 4.0 | 0.00 | 0.00 | 0.00 | 76 | 1013.9 |
| 20260506095810 | 62 | 23 | 1.0 | 3.0 | 0.00 | 0.00 | 0.00 | 76 | 1013.8 |
| 20260506095310 | 62 | 246 | 1.0 | 4.0 | 0.00 | 0.00 | 0.00 | 76 | 1013.8 |
| 20260506094808 | 62 | 71 | 1.0 | 4.0 | 0.00 | 0.00 | 0.00 | 76 | 1013.9 |
| 20260506094603 | 62 | 167 | 1.0 | 4.0 | 0.00 | 0.00 | 0.00 | 76 | 1014.0 |
| 20260506094102 | 62 | 61 | 1.0 | 4.0 | 0.00 | 0.00 | 0.00 | 76 | 1013.9 |
| 20260506093614 | 62 | 41 | 1.0 | 2.0 | 0.00 | 0.00 | 0.00 | 75 | 1013.9 |
| 20260506092808 | 62 | 129 | 1.0 | 3.0 | 0.00 | 0.00 | 0.00 | 75 | 1014.0 |
| 20260506092307 | 62 | 86 | 1.0 | 4.0 | 0.00 | 0.00 | 0.00 | 75 | 1014.3 |
| 20260506091803 | 62 | 255 | 1.0 | 4.0 | 0.00 | 0.00 | 0.00 | 75 | 1014.3 |
| 20260506091304 | 62 | 243 | 0.0 | 3.0 | 0.00 | 0.00 | 0.00 | 75 | 1014.4 |
| 20260506090803 | 62 | 109 | 0.0 | 2.0 | 0.00 | 0.00 | 0.00 | 74 | 1014.5 |
| 20260506090301 | 62 | 252 | 1.0 | 4.0 | 0.00 | 0.00 | 0.00 | 74 | 1014.5 |
| 20260506085802 | 62 | 153 | 1.0 | 4.0 | 0.00 | 0.00 | 0.00 | 74 | 1014.6 |
| 20260506085305 | 62 | 51 | 1.0 | 6.0 | 0.00 | 0.00 | 0.00 | 74 | 1014.6 |
| 20260506084801 | 62 | 145 | 1.0 | 6.0 | 0.00 | 0.00 | 0.00 | 74 | 1014.7 |
| 20260506084303 | 63 | 159 | 1.0 | 3.0 | 0.00 | 0.00 | 0.00 | 74 | 1014.8 |
| 20260506083802 | 63 | 55 | 0.0 | 3.0 | 0.00 | 0.00 | 0.00 | 74 | 1014.8 |
| 20260506083259 | 63 | 208 | 1.0 | 4.0 | 0.00 | 0.00 | 0.00 | 73 | 1014.8 |
| 20260506082753 | 63 | 229 | 1.0 | 4.0 | 0.00 | 0.00 | 0.00 | 73 | 1014.8 |
| 20260506082247 | 63 | 198 | 1.0 | 4.0 | 0.00 | 0.00 | 0.00 | 73 | 1014.9 |
| 20260506081741 | 63 | 159 | 1.0 | 5.0 | 0.00 | 0.00 | 0.00 | 73 | 1014.8 |
| 20260506081241 | 63 | 204 | 1.0 | 5.0 | 0.00 | 0.00 | 0.00 | 73 | 1014.8 |
| 20260506080739 | 63 | 175 | 1.0 | 6.0 | 0.00 | 0.00 | 0.00 | 73 | 1014.8 |
| 20260506080532 | 63 | 173 | 1.0 | 6.0 | 0.00 | 0.00 | 0.00 | 73 | 1014.8 |
| 20260506073236 | 64 | 36 | 1.0 | 4.0 | 0.00 | 0.00 | 0.00 | 71 | 1015.0 |
| 20260506072738 | 64 | 198 | 2.0 | 4.0 | 0.00 | 0.00 | 0.00 | 71 | 1015.0 |
| 20260506072528 | 64 | 170 | 2.0 | 5.0 | 0.00 | 0.00 | 0.00 | 71 | 1014.9 |
| 20260506071734 | 64 | 71 | 2.0 | 5.0 | 0.00 | 0.00 | 0.00 | 71 | 1015.0 |
| 20260506071230 | 64 | 213 | 1.0 | 5.0 | 0.00 | 0.00 | 0.00 | 71 | 1015.0 |
| 20260506070732 | 64 | 194 | 1.0 | 3.0 | 0.00 | 0.00 | 0.00 | 71 | 1014.9 |
| 20260506070230 | 64 | 184 | 2.0 | 4.0 | 0.00 | 0.00 | 0.00 | 71 | 1014.8 |
| 20260506062209 | 65 | 126 | 2.0 | 6.0 | 0.00 | 0.00 | 0.00 | 70 | 1015.1 |
| 20260506061707 | 65 | 205 | 1.0 | 4.0 | 0.00 | 0.00 | 0.00 | 70 | 1015.3 |
| 20260506061208 | 65 | 204 | 2.0 | 4.0 | 0.00 | 0.00 | 0.00 | 69 | 1015.2 |
| 20260506061002 | 65 | 157 | 2.0 | 4.0 | 0.00 | 0.00 | 0.00 | 69 | 1015.2 |
| 20260506060502 | 65 | 226 | 1.0 | 5.0 | 0.00 | 0.00 | 0.00 | 69 | 1015.2 |
| 20260506051008 | 66 | 105 | 2.0 | 6.0 | 0.00 | 0.00 | 0.00 | 66 | 1015.5 |
| 20260506050205 | 66 | 149 | 2.0 | 6.0 | 0.00 | 0.00 | 0.00 | 65 | 1015.4 |
| 20260506044702 | 67 | 78 | 2.0 | 9.0 | 0.00 | 0.00 | 0.00 | 65 | 1015.3 |
| 20260506044203 | 67 | 137 | 2.0 | 9.0 | 0.00 | 0.00 | 0.00 | 64 | 1015.4 |
| 20260506043702 | 67 | 239 | 2.0 | 7.0 | 0.00 | 0.00 | 0.00 | 64 | 1015.4 |
| 20260506043201 | 67 | 77 | 2.0 | 7.0 | 0.00 | 0.00 | 0.00 | 63 | 1015.4 |
| 20260506042703 | 67 | 140 | 2.0 | 7.0 | 0.00 | 0.00 | 0.00 | 63 | 1015.4 |
| 20260506042201 | 67 | 250 | 2.0 | 7.0 | 0.00 | 0.00 | 0.00 | 63 | 1015.4 |
| 20260506041702 | 67 | 160 | 2.0 | 7.0 | 0.00 | 0.00 | 0.00 | 63 | 1015.3 |
| 20260506041202 | 68 | 132 | 2.0 | 7.0 | 0.00 | 0.00 | 0.00 | 62 | 1015.2 |
| 20260506040703 | 68 | 145 | 2.0 | 8.0 | 0.00 | 0.00 | 0.00 | 62 | 1015.1 |
| 20260506040202 | 68 | 126 | 3.0 | 8.0 | 0.00 | 0.00 | 0.00 | 61 | 1015.0 |
| 20260506035702 | 68 | 144 | 3.0 | 7.0 | 0.00 | 0.00 | 0.00 | 61 | 1015.1 |
| 20260506035203 | 68 | 142 | 2.0 | 5.0 | 0.00 | 0.00 | 0.00 | 60 | 1015.0 |
| 20260506034701 | 68 | 290 | 2.0 | 5.0 | 0.00 | 0.00 | 0.00 | 60 | 1015.1 |
| 20260506034500 | 68 | 125 | 2.0 | 5.0 | 0.00 | 0.00 | 0.00 | 59 | 1015.1 |
| 20260506033701 | 69 | 158 | 2.0 | 5.0 | 0.00 | 0.00 | 0.00 | 59 | 1014.9 |
| 20260506033201 | 69 | 112 | 2.0 | 5.0 | 0.00 | 0.00 | 0.00 | 59 | 1014.9 |
| 20260506032701 | 69 | 138 | 2.0 | 5.0 | 0.00 | 0.00 | 0.00 | 58 | 1014.9 |
| 20260506032201 | 69 | 169 | 2.0 | 4.0 | 0.00 | 0.00 | 0.00 | 57 | 1014.9 |
| 20260506031701 | 69 | 134 | 2.0 | 4.0 | 0.00 | 0.00 | 0.00 | 57 | 1014.8 |
| 20260506031323 | 69 | 63 | 2.0 | 4.0 | 0.00 | 0.00 | 0.00 | 56 | 1014.9 |
| 20260506031256 | 69 | 128 | 2.0 | 4.0 | 0.00 | 0.00 | 0.00 | 56 | 1014.8 |
| 20260506030201 | 69 | 141 | 2.0 | 3.0 | 0.00 | 0.00 | 0.00 | 55 | 1014.8 |
| 20260506025703 | 69 | 140 | 1.0 | 3.0 | 0.00 | 0.00 | 0.00 | 54 | 1014.8 |
| 20260506025204 | 68 | 145 | 1.0 | 3.0 | 0.00 | 0.00 | 0.00 | 54 | 1014.9 |
| 20260506024705 | 68 | 164 | 1.0 | 2.0 | 0.00 | 0.00 | 0.00 | 54 | 1014.9 |
| 20260506024201 | 68 | 164 | 1.0 | 3.0 | 0.00 | 0.00 | 0.00 | 54 | 1014.9 |
| 20260506023702 | 68 | 165 | 1.0 | 3.0 | 0.00 | 0.00 | 0.00 | 54 | 1015.1 |
| 20260506023201 | 68 | 198 | 1.0 | 2.0 | 0.00 | 0.00 | 0.00 | 54 | 1015.2 |
| 20260506022702 | 68 | 200 | 0.0 | 1.0 | 0.00 | 0.00 | 0.00 | 53 | 1015.3 |
| 20260506022202 | 69 | 200 | 0.0 | 1.0 | 0.00 | 0.00 | 0.00 | 51 | 1015.3 |
| 20260506021701 | 69 | 200 | 0.0 | 1.0 | 0.00 | 0.00 | 0.00 | 51 | 1015.3 |
| 20260506021454 | 69 | 200 | 0.0 | 1.0 | 0.00 | 0.00 | 0.00 | 50 | 1015.2 |
| 20260506020653 | 70 | 200 | 0.0 | 2.0 | 0.00 | 0.00 | 0.00 | 48 | 1015.2 |
| 20260506020153 | 70 | 200 | 0.0 | 1.0 | 0.00 | 0.00 | 0.00 | 49 | 1015.2 |
| 20260506020111 | 71 | 200 | 0.0 | 1.0 | 0.00 | 0.00 | 0.00 | 47 | 1015.1 |
| 20260506020107 | 70 | 200 | 0.0 | 1.0 | 0.00 | 0.00 | 0.00 | 48 | 1015.2 |
| 20260506014945 | 71 | 200 | 0.0 | 1.0 | 0.00 | 0.00 | 0.00 | 46 | 1015.2 |
| 20260506014148 | 71 | 200 | 0.0 | 1.0 | 0.00 | 0.00 | 0.00 | 46 | 1015.1 |
| 20260506013648 | 71 | 200 | 0.0 | 1.0 | 0.00 | 0.00 | 0.00 | 46 | 1015.1 |
| 20260506013148 | 71 | 207 | 0.0 | 1.0 | 0.00 | 0.00 | 0.00 | 46 | 1014.9 |
| 20260506012648 | 72 | 207 | 0.0 | 1.0 | 0.00 | 0.00 | 0.00 | 45 | 1014.9 |
| 20260506012146 | 72 | 207 | 0.0 | 2.0 | 0.00 | 0.00 | 0.00 | 45 | 1015.0 |
| 20260506011646 | 72 | 207 | 0.0 | 2.0 | 0.00 | 0.00 | 0.00 | 45 | 1014.9 |
| 20260506011146 | 72 | 160 | 0.0 | 2.0 | 0.00 | 0.00 | 0.00 | 44 | 1014.9 |
| 20260506010643 | 72 | 160 | 0.0 | 2.0 | 0.00 | 0.00 | 0.00 | 44 | 1014.8 |
| 20260506010145 | 73 | 158 | 0.0 | 1.0 | 0.00 | 0.00 | 0.00 | 44 | 1014.8 |
| 20260506005642 | 73 | 139 | 0.0 | 1.0 | 0.00 | 0.00 | 0.00 | 44 | 1014.7 |
| 20260506005140 | 73 | 139 | 0.0 | 1.0 | 0.00 | 0.00 | 0.00 | 43 | 1014.7 |
| 20260506004943 | 73 | 139 | 0.0 | 1.0 | 0.00 | 0.00 | 0.00 | 43 | 1014.6 |
| 20260506004138 | 73 | 139 | 0.0 | 1.0 | 0.00 | 0.00 | 0.00 | 42 | 1014.4 |
| 20260506003635 | 74 | 139 | 0.0 | 1.0 | 0.00 | 0.00 | 0.00 | 42 | 1014.6 |
| 20260506003136 | 74 | 139 | 0.0 | 1.0 | 0.00 | 0.00 | 0.00 | 42 | 1014.6 |
| 20260506002635 | 74 | 195 | 0.0 | 1.0 | 0.00 | 0.00 | 0.00 | 42 | 1014.6 |
| 20260506002135 | 74 | 195 | 0.0 | 1.0 | 0.00 | 0.00 | 0.00 | 42 | 1014.4 |
| 20260506001637 | 74 | 195 | 0.0 | 1.0 | 0.00 | 0.00 | 0.00 | 41 | 1014.5 |
| 20260506001135 | 74 | 195 | 0.0 | 2.0 | 0.00 | 0.00 | 0.00 | 41 | 1014.5 |
| 20260506000635 | 74 | 149 | 0.0 | 2.0 | 0.00 | 0.00 | 0.00 | 41 | 1014.3 |
| 20260506000135 | 75 | 205 | 1.0 | 3.0 | 0.00 | 0.00 | 0.00 | 41 | 1014.3 |
| 20260505235636 | 75 | 219 | 1.0 | 7.0 | 0.00 | 0.00 | 0.00 | 40 | 1014.2 |
| 20260505235421 | 75 | 51 | 1.0 | 7.0 | 0.00 | 0.00 | 0.00 | 40 | 1014.3 |
| 20260505234634 | 76 | 82 | 1.0 | 4.0 | 0.00 | 0.00 | 0.00 | 40 | 1014.3 |
| 20260505234134 | 76 | 209 | 1.0 | 4.0 | 0.00 | 0.00 | 0.00 | 40 | 1014.2 |
| 20260505233635 | 76 | 207 | 1.0 | 4.0 | 0.00 | 0.00 | 0.00 | 40 | 1014.0 |
| 20260505233542 | 76 | 186 | 1.0 | 3.0 | 0.00 | 0.00 | 0.00 | 39 | 1014.2 |
| 20260505233538 | 76 | 200 | 1.0 | 3.0 | 0.00 | 0.00 | 0.00 | 39 | 1014.2 |
| 20260505232135 | 77 | 211 | 1.0 | 3.0 | 0.00 | 0.00 | 0.00 | 39 | 1014.2 |
| 20260505231635 | 77 | 207 | 1.0 | 4.0 | 0.00 | 0.00 | 0.00 | 39 | 1014.3 |
| 20260505231439 | 77 | 200 | 1.0 | 4.0 | 0.00 | 0.00 | 0.00 | 38 | 1014.2 |
| 20260505230634 | 77 | 128 | 1.0 | 4.0 | 0.00 | 0.00 | 0.00 | 39 | 1014.2 |
| 20260505230134 | 77 | 207 | 1.0 | 4.0 | 0.00 | 0.00 | 0.00 | 39 | 1014.2 |
| 20260505225634 | 77 | 138 | 1.0 | 4.0 | 0.00 | 0.00 | 0.00 | 40 | 1014.2 |
| 20260505225135 | 77 | 91 | 1.0 | 3.0 | 0.00 | 0.00 | 0.00 | 39 | 1014.0 |
| 20260505224925 | 77 | 102 | 1.0 | 4.0 | 0.00 | 0.00 | 0.00 | 39 | 1014.0 |
| 20260505224441 | 78 | 215 | 2.0 | 4.0 | 0.00 | 0.00 | 0.00 | 37 | 1014.2 |
| 20260505223631 | 78 | 194 | 2.0 | 12.0 | 0.00 | 0.00 | 0.00 | 37 | 1014.0 |
| 20260505223133 | 78 | 183 | 3.0 | 12.0 | 0.00 | 0.00 | 0.00 | 37 | 1014.0 |
| 20260505222632 | 78 | 223 | 2.0 | 5.0 | 0.00 | 0.00 | 0.00 | 37 | 1014.2 |
| 20260505222133 | 79 | 162 | 3.0 | 6.0 | 0.00 | 0.00 | 0.00 | 37 | 1014.3 |
| 20260505221632 | 79 | 194 | 2.0 | 6.0 | 0.00 | 0.00 | 0.00 | 36 | 1014.3 |
| 20260505221129 | 79 | 229 | 2.0 | 7.0 | 0.00 | 0.00 | 0.00 | 37 | 1014.4 |
| 20260505220715 | 80 | 197 | 1.0 | 4.0 | 0.00 | 0.00 | 0.00 | 36 | 1014.6 |
| 20260505220658 | 80 | 167 | 2.0 | 7.0 | 0.00 | 0.00 | 0.00 | 36 | 1014.3 |
| 20260505215615 | 80 | 83 | 2.0 | 7.0 | 0.00 | 0.00 | 0.00 | 36 | 1014.5 |
| 20260505215113 | 80 | 119 | 2.0 | 7.0 | 0.00 | 0.00 | 0.00 | 36 | 1014.4 |
| 20260505214614 | 80 | 226 | 2.0 | 7.0 | 0.00 | 0.00 | 0.00 | 36 | 1014.5 |
| 20260505214113 | 80 | 124 | 2.0 | 7.0 | 0.00 | 0.00 | 0.00 | 36 | 1014.5 |
| 20260505213613 | 80 | 160 | 2.0 | 8.0 | 0.00 | 0.00 | 0.00 | 36 | 1014.7 |
| 20260505213112 | 80 | 346 | 3.0 | 8.0 | 0.00 | 0.00 | 0.00 | 36 | 1014.6 |
| 20260505212611 | 80 | 194 | 3.0 | 8.0 | 0.00 | 0.00 | 0.00 | 36 | 1014.6 |
| 20260505212112 | 80 | 200 | 3.0 | 8.0 | 0.00 | 0.00 | 0.00 | 35 | 1014.5 |
| 20260505211611 | 80 | 196 | 2.0 | 6.0 | 0.00 | 0.00 | 0.00 | 35 | 1014.6 |
| 20260505211111 | 80 | 86 | 2.0 | 5.0 | 0.00 | 0.00 | 0.00 | 36 | 1014.7 |
| 20260505210913 | 80 | 176 | 2.0 | 10.0 | 0.00 | 0.00 | 0.00 | 36 | 1014.7 |
| 20260505210111 | 80 | 214 | 2.0 | 10.0 | 0.00 | 0.00 | 0.00 | 36 | 1014.6 |
| 20260505205609 | 80 | 209 | 3.0 | 9.0 | 0.00 | 0.00 | 0.00 | 36 | 1014.7 |
| 20260505205107 | 80 | 121 | 2.0 | 9.0 | 0.00 | 0.00 | 0.00 | 37 | 1014.7 |
| 20260505204606 | 79 | 196 | 2.0 | 5.0 | 0.00 | 0.00 | 0.00 | 36 | 1014.7 |
| 20260505204107 | 79 | 186 | 2.0 | 5.0 | 0.00 | 0.00 | 0.00 | 36 | 1014.9 |
| 20260505203609 | 80 | 221 | 2.0 | 5.0 | 0.00 | 0.00 | 0.00 | 35 | 1014.9 |
| 20260505203106 | 79 | 221 | 2.0 | 8.0 | 0.00 | 0.00 | 0.00 | 37 | 1014.9 |
| 20260505202605 | 79 | 161 | 2.0 | 8.0 | 0.00 | 0.00 | 0.00 | 37 | 1014.9 |
| 20260505202105 | 80 | 115 | 3.0 | 8.0 | 0.00 | 0.00 | 0.00 | 35 | 1015.1 |
| 20260505201605 | 81 | 107 | 2.0 | 8.0 | 0.00 | 0.00 | 0.00 | 35 | 1015.1 |
| 20260505201103 | 82 | 207 | 2.0 | 7.0 | 0.00 | 0.00 | 0.00 | 36 | 1015.1 |
| 20260505200605 | 81 | 241 | 3.0 | 9.0 | 0.00 | 0.00 | 0.00 | 33 | 1014.9 |
| 20260505200103 | 82 | 199 | 3.0 | 9.0 | 0.00 | 0.00 | 0.00 | 35 | 1015.1 |
| 20260505195606 | 81 | 193 | 3.0 | 7.0 | 0.00 | 0.00 | 0.00 | 35 | 1015.2 |
| 20260505195103 | 81 | 196 | 3.0 | 6.0 | 0.00 | 0.00 | 0.00 | 34 | 1015.2 |
| 20260505194741 | 81 | 75 | 2.0 | 6.0 | 0.00 | 0.00 | 0.00 | 33 | 1015.4 |
| 20260505194710 | 81 | 243 | 2.0 | 6.0 | 0.00 | 0.00 | 0.00 | 34 | 1015.2 |
| 20260505193603 | 81 | 219 | 2.0 | 6.0 | 0.00 | 0.00 | 0.00 | 35 | 1015.3 |
| 20260505193433 | 80 | 159 | 3.0 | 6.0 | 0.00 | 0.00 | 0.00 | 35 | 1015.6 |
| 20260505192603 | 81 | 218 | 2.0 | 6.0 | 0.00 | 0.00 | 0.00 | 36 | 1015.8 |
| 20260505192104 | 81 | 222 | 2.0 | 5.0 | 0.00 | 0.00 | 0.00 | 35 | 1015.8 |
| 20260505191610 | 80 | 152 | 2.0 | 5.0 | 0.00 | 0.00 | 0.00 | 35 | 1015.9 |
| 20260505191107 | 80 | 155 | 2.0 | 5.0 | 0.00 | 0.00 | 0.00 | 37 | 1016.0 |
| 20260505190607 | 80 | 148 | 3.0 | 7.0 | 0.00 | 0.00 | 0.00 | 36 | 1016.1 |
| 20260505185556 | 80 | 235 | 3.0 | 8.0 | 0.00 | 0.00 | 0.00 | 35 | 1016.2 |
| 20260505185049 | 80 | 175 | 3.0 | 8.0 | 0.00 | 0.00 | 0.00 | 35 | 1016.2 |
| 20260505184852 | 80 | 331 | 3.0 | 6.0 | 0.00 | 0.00 | 0.00 | 37 | 1016.2 |
| 20260505184340 | 79 | 57 | 3.0 | 6.0 | 0.00 | 0.00 | 0.00 | 38 | 1016.3 |
| 20260505183533 | 80 | 75 | 2.0 | 9.0 | 0.00 | 0.00 | 0.00 | 38 | 1016.6 |
| 20260505183033 | 80 | 55 | 2.0 | 9.0 | 0.00 | 0.00 | 0.00 | 38 | 1016.7 |
| 20260505182535 | 79 | 112 | 3.0 | 6.0 | 0.00 | 0.00 | 0.00 | 39 | 1016.8 |
| 20260505182034 | 78 | 190 | 3.0 | 7.0 | 0.00 | 0.00 | 0.00 | 39 | 1016.9 |
| 20260505181534 | 78 | 209 | 3.0 | 7.0 | 0.00 | 0.00 | 0.00 | 37 | 1017.1 |
| 20260505181036 | 79 | 231 | 3.0 | 10.0 | 0.00 | 0.00 | 0.00 | 38 | 1017.1 |
| 20260505180531 | 79 | 209 | 3.0 | 10.0 | 0.00 | 0.00 | 0.00 | 36 | 1017.1 |
| 20260505180334 | 79 | 203 | 3.0 | 7.0 | 0.00 | 0.00 | 0.00 | 36 | 1017.1 |
| 20260505175530 | 78 | 222 | 3.0 | 7.0 | 0.00 | 0.00 | 0.00 | 35 | 1017.1 |
| 20260505175030 | 79 | 208 | 2.0 | 8.0 | 0.00 | 0.00 | 0.00 | 36 | 1017.1 |
| 20260505174529 | 78 | 219 | 2.0 | 8.0 | 0.00 | 0.00 | 0.00 | 35 | 1017.0 |
| 20260505174030 | 78 | 295 | 3.0 | 8.0 | 0.00 | 0.00 | 0.00 | 35 | 1017.0 |
| 20260505173529 | 78 | 156 | 3.0 | 8.0 | 0.00 | 0.00 | 0.00 | 36 | 1016.9 |
| 20260505173029 | 79 | 192 | 2.0 | 7.0 | 0.00 | 0.00 | 0.00 | 35 | 1016.9 |
| 20260505172532 | 79 | 159 | 2.0 | 7.0 | 0.00 | 0.00 | 0.00 | 37 | 1017.0 |
| 20260505172030 | 78 | 141 | 3.0 | 7.0 | 0.00 | 0.00 | 0.00 | 37 | 1017.0 |
| 20260505171533 | 78 | 207 | 2.0 | 7.0 | 0.00 | 0.00 | 0.00 | 35 | 1017.2 |
| 20260505171026 | 78 | 105 | 2.0 | 7.0 | 0.00 | 0.00 | 0.00 | 37 | 1017.1 |
| 20260505170526 | 78 | 193 | 2.0 | 6.0 | 0.00 | 0.00 | 0.00 | 40 | 1017.1 |
| 20260505170029 | 77 | 92 | 2.0 | 5.0 | 0.00 | 0.00 | 0.00 | 40 | 1017.1 |
| 20260505165526 | 76 | 38 | 2.0 | 7.0 | 0.00 | 0.00 | 0.00 | 42 | 1017.2 |
| 20260505165323 | 76 | 107 | 3.0 | 7.0 | 0.00 | 0.00 | 0.00 | 40 | 1017.3 |
| 20260505164527 | 76 | 253 | 2.0 | 7.0 | 0.00 | 0.00 | 0.00 | 41 | 1017.3 |
| 20260505164026 | 75 | 144 | 2.0 | 6.0 | 0.00 | 0.00 | 0.00 | 46 | 1017.4 |
| 20260505163526 | 75 | 129 | 2.0 | 6.0 | 0.00 | 0.00 | 0.00 | 43 | 1017.5 |
| 20260505163027 | 76 | 304 | 2.0 | 8.0 | 0.00 | 0.00 | 0.00 | 45 | 1017.5 |
| 20260505162753 | 75 | 186 | 2.0 | 8.0 | 0.00 | 0.00 | 0.00 | 47 | 1017.5 |
| 20260505162528 | 75 | 186 | 2.0 | 8.0 | 0.00 | 0.00 | 0.00 | 47 | 1017.5 |
| 20260505162025 | 75 | 281 | 2.0 | 4.0 | 0.00 | 0.00 | 0.00 | 47 | 1017.7 |
| 20260505161527 | 74 | 230 | 2.0 | 7.0 | 0.00 | 0.00 | 0.00 | 46 | 1017.7 |